AMX528 MMMX-MMUN

Flight info

Callsign AMX528
Flight time 2h 19m
Altitude 35000
Route UKUNO3A UKUNO UT108 VER UJ24 GOTAS UT65 PAULE PAULE3G
Aircraft B738/M-SDE2E3FGHIRWXY/LB1

Departure

Time 2026-05-07 20:40
Airport Mexico City Benito Juárez International Airport (MMMX)

Arrival

Time 2026-05-07 23:00
Airport Cancún International Airport (MMUN)
Time Latitude Longitude Altitude Speed Heading
2026-05-07 20:00 19.43224 -99.08624 7302 ft 0 kts 352°
2026-05-07 20:32 19.43157 -99.08591 7302 ft 4 kts 284°
2026-05-07 20:32 19.43157 -99.08575 7302 ft 1 kts 240°
2026-05-07 20:35 19.43153 -99.08581 7302 ft 2 kts 239°
2026-05-07 20:35 19.43143 -99.08600 7302 ft 3 kts 239°
2026-05-07 20:35 19.43131 -99.08621 7302 ft 4 kts 239°
2026-05-07 20:35 19.43108 -99.08662 7302 ft 7 kts 239°
2026-05-07 20:36 19.43082 -99.08709 7302 ft 8 kts 239°
2026-05-07 20:36 19.43056 -99.08755 7302 ft 7 kts 239°
2026-05-07 20:36 19.43030 -99.08801 7302 ft 7 kts 239°
2026-05-07 20:36 19.43006 -99.08845 7302 ft 7 kts 239°
2026-05-07 20:37 19.42981 -99.08888 7302 ft 7 kts 238°
2026-05-07 20:37 19.42958 -99.08930 7302 ft 7 kts 239°
2026-05-07 20:37 19.42935 -99.08971 7302 ft 6 kts 239°
2026-05-07 20:37 19.42908 -99.09007 7302 ft 6 kts 216°
2026-05-07 20:38 19.42882 -99.09015 7302 ft 3 kts 185°
2026-05-07 20:38 19.42860 -99.09011 7302 ft 3 kts 161°
2026-05-07 20:38 19.42839 -99.09001 7302 ft 3 kts 157°
2026-05-07 20:38 19.42817 -99.08992 7301 ft 4 kts 156°
2026-05-07 20:39 19.42807 -99.08969 7302 ft 4 kts 80°
2026-05-07 20:39 19.42813 -99.08956 7302 ft 3 kts 63°
2026-05-07 20:39 19.42929 -99.08747 7301 ft 65 kts 59°
2026-05-07 20:39 19.43264 -99.08151 7302 ft 122 kts 59°
2026-05-07 20:40 19.43790 -99.07222 7303 ft 170 kts 58°
2026-05-07 20:40 19.44434 -99.06085 7679 ft 187 kts 55°
2026-05-07 20:40 19.45126 -99.04865 8392 ft 199 kts 58°
2026-05-07 20:40 19.45846 -99.03589 9239 ft 205 kts 59°
2026-05-07 20:41 19.46608 -99.02233 9389 ft 223 kts 59°
2026-05-07 20:41 19.47426 -99.00768 9479 ft 239 kts 59°
2026-05-07 20:41 19.48303 -98.99196 9539 ft 256 kts 59°
2026-05-07 20:41 19.49240 -98.97518 9604 ft 272 kts 59°
2026-05-07 20:42 19.50234 -98.95741 9674 ft 291 kts 59°
2026-05-07 20:42 19.51285 -98.93867 10032 ft 299 kts 59°
2026-05-07 20:42 19.52353 -98.91961 10619 ft 302 kts 60°
2026-05-07 20:42 19.53381 -98.90020 11256 ft 302 kts 67°
2026-05-07 20:43 19.54017 -98.87906 11916 ft 301 kts 76°
2026-05-07 20:43 19.54542 -98.85745 12500 ft 305 kts 76°
2026-05-07 20:43 19.55076 -98.83561 13163 ft 305 kts 76°
2026-05-07 20:43 19.55624 -98.81389 13815 ft 307 kts 76°
2026-05-07 20:44 19.56193 -98.79191 14302 ft 312 kts 76°
2026-05-07 20:44 19.56773 -98.76979 14913 ft 312 kts 76°
2026-05-07 20:44 19.57360 -98.74742 15385 ft 318 kts 76°
2026-05-07 20:44 19.57650 -98.72410 15824 ft 323 kts 96°
2026-05-07 20:45 19.57278 -98.70008 15981 ft 340 kts 103°
2026-05-07 20:45 19.56763 -98.67497 16134 ft 356 kts 104°
2026-05-07 20:45 19.56206 -98.64886 16327 ft 370 kts 103°
2026-05-07 20:45 19.55640 -98.62200 16710 ft 377 kts 104°
2026-05-07 20:46 19.55077 -98.59477 17258 ft 378 kts 103°
2026-05-07 20:46 19.54522 -98.56746 17787 ft 380 kts 103°
2026-05-07 20:46 19.53985 -98.54075 18242 ft 384 kts 103°
2026-05-07 20:46 19.53426 -98.51277 18784 ft 383 kts 103°
2026-05-07 20:47 19.52876 -98.48532 19150 ft 388 kts 104°
2026-05-07 20:47 19.52305 -98.45680 19524 ft 393 kts 104°
2026-05-07 20:47 19.51743 -98.42877 19967 ft 395 kts 104°
2026-05-07 20:47 19.51163 -98.39984 20417 ft 398 kts 104°
2026-05-07 20:48 19.50592 -98.37143 20842 ft 400 kts 104°
2026-05-07 20:48 19.50012 -98.34250 21302 ft 402 kts 104°
2026-05-07 20:48 19.49424 -98.31324 21572 ft 410 kts 104°
2026-05-07 20:48 19.48829 -98.28360 21951 ft 413 kts 105°
2026-05-07 20:49 19.48231 -98.25380 22397 ft 414 kts 105°
2026-05-07 20:49 19.47631 -98.22392 22816 ft 415 kts 105°
2026-05-07 20:49 19.47028 -98.19394 23206 ft 418 kts 105°
2026-05-07 20:49 19.46419 -98.16368 23556 ft 421 kts 105°
2026-05-07 20:50 19.45806 -98.13326 23863 ft 423 kts 105°
2026-05-07 20:50 19.45189 -98.10265 24171 ft 426 kts 105°
2026-05-07 20:50 19.44569 -98.07189 24486 ft 428 kts 105°
2026-05-07 20:50 19.43945 -98.04103 24796 ft 431 kts 105°
2026-05-07 20:51 19.43323 -98.00986 25098 ft 433 kts 103°
2026-05-07 20:51 19.42871 -97.97818 25397 ft 437 kts 99°
2026-05-07 20:51 19.42557 -97.94608 25689 ft 440 kts 98°
2026-05-07 20:51 19.42292 -97.91366 25971 ft 442 kts 97°
2026-05-07 20:52 19.42031 -97.88114 26248 ft 445 kts 97°
2026-05-07 20:52 19.41754 -97.84842 26529 ft 447 kts 98°
2026-05-07 20:52 19.41460 -97.81557 26818 ft 449 kts 98°
2026-05-07 20:52 19.41150 -97.78263 27074 ft 451 kts 99°
2026-05-07 20:53 19.40830 -97.74950 27344 ft 453 kts 98°
2026-05-07 20:53 19.40504 -97.71626 27618 ft 455 kts 98°
2026-05-07 20:53 19.40174 -97.68283 27869 ft 457 kts 99°
2026-05-07 20:53 19.39844 -97.64926 28111 ft 459 kts 98°
2026-05-07 20:54 19.39511 -97.61552 28364 ft 461 kts 98°
2026-05-07 20:54 19.39176 -97.58163 28605 ft 464 kts 98°
2026-05-07 20:54 19.38952 -97.55917 28755 ft 465 kts 98°
2026-05-07 20:54 19.38503 -97.51389 29076 ft 468 kts 98°
2026-05-07 20:55 19.38162 -97.47958 29301 ft 469 kts 98°
2026-05-07 20:55 19.37819 -97.44513 29527 ft 471 kts 98°
2026-05-07 20:55 19.37475 -97.41058 29747 ft 473 kts 98°
2026-05-07 20:55 19.37129 -97.37593 30072 ft 472 kts 98°
2026-05-07 20:56 19.36895 -97.35256 30274 ft 472 kts 98°
2026-05-07 20:56 19.36550 -97.31808 30548 ft 471 kts 98°
2026-05-07 20:56 19.36203 -97.28356 30804 ft 472 kts 98°
2026-05-07 20:56 19.35856 -97.24900 31066 ft 472 kts 98°
2026-05-07 20:57 19.35508 -97.21448 31345 ft 471 kts 98°
2026-05-07 20:57 19.35159 -97.18000 31636 ft 471 kts 98°
2026-05-07 20:57 19.34810 -97.14552 31887 ft 471 kts 98°
2026-05-07 20:57 19.34462 -97.11107 32151 ft 470 kts 98°
2026-05-07 20:58 19.34113 -97.07674 32493 ft 469 kts 98°
2026-05-07 20:58 19.33742 -97.04240 32721 ft 469 kts 100°
2026-05-07 20:58 19.33121 -97.00856 32946 ft 469 kts 104°
2026-05-07 20:58 19.32362 -96.97500 33185 ft 467 kts 105°
2026-05-07 20:59 19.31565 -96.94177 33586 ft 464 kts 106°
2026-05-07 20:59 19.30769 -96.90871 33883 ft 464 kts 105°
2026-05-07 20:59 19.29983 -96.87558 34067 ft 465 kts 105°
2026-05-07 20:59 19.29209 -96.84233 34212 ft 465 kts 105°
2026-05-07 21:00 19.28446 -96.80903 34424 ft 466 kts 105°
2026-05-07 21:00 19.27688 -96.77571 34630 ft 466 kts 105°
2026-05-07 21:00 19.26944 -96.74282 34831 ft 464 kts 105°
2026-05-07 21:01 19.25440 -96.67640 34840 ft 465 kts 105°
2026-05-07 21:01 19.23927 -96.60976 34841 ft 467 kts 105°
2026-05-07 21:02 19.22405 -96.54293 34841 ft 468 kts 105°
2026-05-07 21:02 19.20876 -96.47594 34823 ft 468 kts 105°
2026-05-07 21:03 19.19346 -96.40899 34818 ft 469 kts 104°
2026-05-07 21:03 19.17812 -96.34198 34822 ft 468 kts 104°
2026-05-07 21:04 19.16281 -96.27522 34825 ft 467 kts 104°
2026-05-07 21:04 19.14828 -96.20833 34818 ft 466 kts 98°
2026-05-07 21:05 19.14837 -96.14010 34824 ft 466 kts 82°
2026-05-07 21:05 19.15839 -96.07242 34816 ft 466 kts 81°
2026-05-07 21:06 19.16839 -96.00483 34813 ft 465 kts 82°
2026-05-07 21:06 19.17782 -95.93730 34809 ft 464 kts 82°
2026-05-07 21:07 19.18705 -95.86983 34804 ft 463 kts 82°
2026-05-07 21:07 19.19620 -95.80284 34806 ft 463 kts 82°
2026-05-07 21:08 19.20540 -95.73539 34805 ft 463 kts 82°
2026-05-07 21:08 19.21445 -95.66794 34810 ft 463 kts 82°
2026-05-07 21:09 19.22346 -95.60041 34804 ft 464 kts 82°
2026-05-07 21:09 19.23246 -95.53277 34805 ft 464 kts 82°
2026-05-07 21:10 19.24146 -95.46503 34806 ft 465 kts 82°
2026-05-07 21:10 19.25044 -95.39727 34806 ft 465 kts 82°
2026-05-07 21:11 19.25941 -95.32939 34807 ft 466 kts 82°
2026-05-07 21:11 19.27282 -95.22751 34806 ft 466 kts 82°
2026-05-07 21:12 19.28174 -95.15948 34808 ft 467 kts 82°
2026-05-07 21:12 19.29064 -95.09148 34809 ft 467 kts 82°
2026-05-07 21:13 19.29560 -95.02317 34811 ft 465 kts 92°
2026-05-07 21:13 19.29337 -94.95466 34806 ft 466 kts 93°
2026-05-07 21:14 19.29070 -94.88625 34808 ft 465 kts 93°
2026-05-07 21:14 19.28846 -94.81792 34809 ft 464 kts 92°
2026-05-07 21:15 19.28649 -94.74961 34807 ft 464 kts 92°
2026-05-07 21:15 19.28458 -94.68148 34807 ft 463 kts 92°
2026-05-07 21:16 19.28264 -94.61344 34810 ft 462 kts 92°
2026-05-07 21:16 19.28067 -94.54549 34814 ft 461 kts 92°
2026-05-07 21:17 19.27867 -94.47767 34810 ft 461 kts 92°
2026-05-07 21:17 19.27665 -94.41037 34811 ft 460 kts 92°
2026-05-07 21:18 19.27460 -94.34270 34810 ft 460 kts 92°
2026-05-07 21:18 19.27253 -94.27505 34812 ft 460 kts 92°
2026-05-07 21:19 19.27043 -94.20735 34812 ft 460 kts 92°
2026-05-07 21:19 19.26831 -94.13973 34812 ft 460 kts 92°
2026-05-07 21:20 19.26616 -94.07204 34812 ft 460 kts 92°
2026-05-07 21:20 19.26397 -94.00390 34814 ft 461 kts 93°
2026-05-07 21:21 19.26179 -93.93657 34819 ft 461 kts 93°
2026-05-07 21:21 19.25956 -93.86873 34818 ft 461 kts 92°
2026-05-07 21:22 19.25730 -93.80086 34820 ft 462 kts 92°
2026-05-07 21:22 19.25502 -93.73290 34817 ft 462 kts 93°
2026-05-07 21:23 19.25271 -93.66495 34821 ft 462 kts 93°
2026-05-07 21:23 19.25038 -93.59696 34821 ft 462 kts 93°
2026-05-07 21:24 19.24802 -93.52899 34820 ft 462 kts 93°
2026-05-07 21:24 19.24564 -93.46102 34816 ft 462 kts 93°
2026-05-07 21:25 19.24323 -93.39309 34818 ft 462 kts 93°
2026-05-07 21:25 19.24080 -93.32516 34823 ft 462 kts 93°
2026-05-07 21:26 19.23834 -93.25726 34824 ft 462 kts 93°
2026-05-07 21:26 19.23586 -93.18943 34820 ft 461 kts 93°
2026-05-07 21:27 19.23336 -93.12163 34819 ft 461 kts 93°
2026-05-07 21:27 19.23083 -93.05382 34822 ft 461 kts 93°
2026-05-07 21:28 19.22830 -92.98648 34822 ft 461 kts 93°
2026-05-07 21:28 19.22572 -92.91879 34819 ft 461 kts 93°
2026-05-07 21:29 19.22312 -92.85110 34820 ft 460 kts 93°
2026-05-07 21:29 19.22050 -92.78348 34820 ft 460 kts 93°
2026-05-07 21:30 19.21786 -92.71588 34823 ft 460 kts 93°
2026-05-07 21:30 19.21702 -92.64826 34829 ft 460 kts 89°
2026-05-07 21:31 19.21898 -92.58060 34822 ft 460 kts 89°
2026-05-07 21:31 19.22111 -92.51298 34820 ft 460 kts 89°
2026-05-07 21:32 19.22289 -92.44536 34819 ft 460 kts 89°
2026-05-07 21:32 19.22446 -92.37776 34823 ft 460 kts 89°
2026-05-07 21:33 19.22596 -92.31018 34824 ft 459 kts 89°
2026-05-07 21:33 19.22743 -92.24261 34831 ft 459 kts 89°
2026-05-07 21:34 19.22890 -92.17510 34822 ft 459 kts 89°
2026-05-07 21:34 19.23034 -92.10761 34825 ft 458 kts 89°
2026-05-07 21:35 19.23175 -92.04020 34824 ft 458 kts 89°
2026-05-07 21:35 19.23314 -91.97290 34824 ft 457 kts 89°
2026-05-07 21:36 19.23450 -91.90560 34826 ft 457 kts 90°
2026-05-07 21:36 19.23582 -91.83890 34825 ft 456 kts 90°
2026-05-07 21:37 19.23713 -91.77177 34824 ft 456 kts 90°
2026-05-07 21:37 19.23842 -91.70477 34824 ft 455 kts 90°
2026-05-07 21:38 19.23967 -91.63777 34822 ft 455 kts 90°
2026-05-07 21:38 19.24091 -91.57089 34822 ft 455 kts 90°
2026-05-07 21:39 19.24211 -91.50401 34814 ft 455 kts 90°
2026-05-07 21:39 19.24329 -91.43711 34819 ft 455 kts 90°
2026-05-07 21:40 19.24445 -91.37022 34814 ft 455 kts 90°
2026-05-07 21:40 19.24559 -91.30330 34813 ft 455 kts 90°
2026-05-07 21:41 19.24670 -91.23626 34813 ft 456 kts 90°
2026-05-07 21:41 19.24779 -91.16914 34812 ft 456 kts 90°
2026-05-07 21:42 19.24885 -91.10196 34811 ft 457 kts 90°
2026-05-07 21:42 19.24986 -91.03470 34809 ft 457 kts 90°
2026-05-07 21:43 19.25069 -90.97875 34809 ft 458 kts 90°
2026-05-07 21:43 19.25166 -90.91139 34805 ft 458 kts 90°
2026-05-07 21:44 19.25261 -90.84400 34805 ft 458 kts 90°
2026-05-07 21:44 19.25354 -90.77653 34806 ft 458 kts 90°
2026-05-07 21:45 19.25444 -90.70914 34801 ft 458 kts 90°
2026-05-07 21:45 19.25532 -90.64170 34808 ft 458 kts 90°
2026-05-07 21:46 19.25618 -90.57420 34805 ft 459 kts 90°
2026-05-07 21:46 19.25700 -90.50673 34803 ft 459 kts 90°
2026-05-07 21:47 19.25781 -90.43920 34811 ft 459 kts 90°
2026-05-07 21:47 19.25859 -90.37163 34809 ft 459 kts 91°
2026-05-07 21:48 19.25894 -90.30406 34813 ft 459 kts 92°
2026-05-07 21:48 19.25748 -90.23646 34810 ft 460 kts 93°
2026-05-07 21:49 19.25573 -90.16883 34811 ft 460 kts 92°
2026-05-07 21:49 19.25415 -90.10108 34822 ft 460 kts 92°
2026-05-07 21:50 19.25267 -90.03336 34823 ft 461 kts 92°
2026-05-07 21:50 19.25122 -89.96554 34821 ft 461 kts 92°
2026-05-07 21:51 19.24971 -89.89766 34823 ft 461 kts 92°
2026-05-07 21:51 19.24817 -89.82986 34818 ft 461 kts 93°
2026-05-07 21:52 19.24662 -89.76202 34821 ft 461 kts 93°
2026-05-07 21:52 19.24504 -89.69412 34835 ft 461 kts 92°
2026-05-07 21:53 19.24342 -89.62622 34834 ft 461 kts 92°
2026-05-07 21:53 19.24179 -89.55841 34826 ft 461 kts 92°
2026-05-07 21:54 19.24927 -89.49105 34812 ft 464 kts 75°
2026-05-07 21:54 19.26784 -89.42579 34832 ft 463 kts 73°
2026-05-07 21:55 19.28666 -89.36056 34836 ft 463 kts 74°
2026-05-07 21:55 19.30482 -89.29561 34841 ft 463 kts 75°
2026-05-07 21:56 19.32284 -89.23014 34848 ft 464 kts 74°
2026-05-07 21:56 19.34086 -89.16458 34853 ft 464 kts 75°
2026-05-07 21:57 19.35889 -89.09901 34859 ft 464 kts 75°
2026-05-07 21:57 19.37690 -89.03339 34861 ft 464 kts 75°
2026-05-07 21:58 19.39493 -88.96779 34853 ft 464 kts 75°
2026-05-07 21:58 19.41296 -88.90215 34857 ft 463 kts 75°
2026-05-07 21:59 19.43091 -88.83658 34863 ft 463 kts 74°
2026-05-07 21:59 19.44882 -88.77101 34860 ft 464 kts 75°
2026-05-07 22:00 19.46674 -88.70539 34862 ft 464 kts 74°
2026-05-07 22:00 19.48464 -88.63977 34859 ft 464 kts 74°
2026-05-07 22:01 19.50254 -88.57400 34869 ft 465 kts 74°
2026-05-07 22:01 19.52041 -88.50822 34868 ft 465 kts 74°
2026-05-07 22:02 19.53829 -88.44233 34875 ft 465 kts 74°
2026-05-07 22:02 19.55616 -88.37639 34874 ft 466 kts 74°
2026-05-07 22:03 19.57389 -88.31082 34887 ft 466 kts 74°
2026-05-07 22:03 19.59158 -88.24532 34884 ft 457 kts 74°
2026-05-07 22:04 19.60870 -88.18185 34864 ft 435 kts 74°
2026-05-07 22:04 19.61697 -88.15113 34481 ft 434 kts 74°
2026-05-07 22:04 19.62528 -88.12026 33916 ft 436 kts 75°
2026-05-07 22:05 19.63353 -88.08960 33535 ft 427 kts 75°
2026-05-07 22:05 19.64153 -88.05982 33420 ft 411 kts 75°
2026-05-07 22:05 19.64922 -88.03121 33371 ft 394 kts 75°
2026-05-07 22:05 19.65665 -88.00357 33047 ft 390 kts 75°
2026-05-07 22:06 19.66420 -87.97540 32024 ft 407 kts 76°
2026-05-07 22:06 19.67212 -87.94570 31044 ft 424 kts 76°
2026-05-07 22:06 19.68015 -87.91568 30621 ft 423 kts 76°
2026-05-07 22:06 19.68821 -87.88562 30218 ft 422 kts 75°
2026-05-07 22:07 19.69619 -87.85576 29827 ft 420 kts 77°
2026-05-07 22:07 19.70412 -87.82602 29410 ft 417 kts 77°
2026-05-07 22:07 19.71200 -87.79667 29013 ft 413 kts 76°
2026-05-07 22:07 19.71981 -87.76753 28765 ft 406 kts 77°
2026-05-07 22:08 19.72751 -87.73869 28258 ft 406 kts 76°
2026-05-07 22:08 19.73513 -87.71004 27908 ft 402 kts 78°
2026-05-07 22:08 19.74266 -87.68163 27544 ft 399 kts 76°
2026-05-07 22:08 19.75014 -87.65343 27176 ft 396 kts 77°
2026-05-07 22:09 19.75764 -87.62541 26817 ft 393 kts 77°
2026-05-07 22:09 19.76506 -87.59760 26460 ft 390 kts 77°
2026-05-07 22:09 19.77238 -87.56998 26103 ft 387 kts 77°
2026-05-07 22:09 19.77963 -87.54253 25747 ft 385 kts 77°
2026-05-07 22:10 19.78685 -87.51526 25392 ft 383 kts 77°
2026-05-07 22:10 19.79406 -87.48809 25046 ft 381 kts 77°
2026-05-07 22:10 19.80113 -87.46141 24677 ft 380 kts 77°
2026-05-07 22:10 19.80837 -87.43407 24311 ft 379 kts 77°
2026-05-07 22:11 19.81632 -87.40784 23950 ft 381 kts 67°
2026-05-07 22:11 19.83054 -87.38436 23831 ft 375 kts 57°
2026-05-07 22:11 19.84620 -87.36199 23634 ft 369 kts 56°
2026-05-07 22:11 19.86134 -87.34073 23484 ft 363 kts 56°
2026-05-07 22:12 19.87644 -87.31946 23317 ft 358 kts 56°
2026-05-07 22:12 19.89140 -87.29820 23176 ft 361 kts 57°
2026-05-07 22:12 19.90649 -87.27660 23032 ft 366 kts 57°
2026-05-07 22:12 19.92166 -87.25475 22876 ft 367 kts 57°
2026-05-07 22:13 19.93674 -87.23301 22720 ft 364 kts 57°
2026-05-07 22:13 19.95168 -87.21143 22566 ft 361 kts 57°
2026-05-07 22:13 19.96647 -87.19004 22411 ft 358 kts 57°
2026-05-07 22:13 19.98118 -87.16873 22277 ft 356 kts 57°
2026-05-07 22:14 19.99576 -87.14762 22132 ft 354 kts 57°
2026-05-07 22:14 20.01029 -87.12655 21991 ft 352 kts 57°
2026-05-07 22:14 20.02475 -87.10557 21852 ft 351 kts 57°
2026-05-07 22:14 20.03918 -87.08464 21714 ft 350 kts 57°
2026-05-07 22:15 20.05354 -87.06378 21577 ft 350 kts 57°
2026-05-07 22:15 20.06790 -87.04292 21431 ft 350 kts 57°
2026-05-07 22:15 20.08226 -87.02207 21290 ft 349 kts 57°
2026-05-07 22:15 20.09662 -87.00120 21152 ft 349 kts 57°
2026-05-07 22:16 20.11094 -86.98039 21010 ft 349 kts 57°
2026-05-07 22:16 20.12526 -86.95958 20867 ft 349 kts 56°
2026-05-07 22:16 20.13958 -86.93876 20735 ft 348 kts 57°
2026-05-07 22:16 20.15385 -86.91799 20595 ft 348 kts 56°
2026-05-07 22:17 20.16813 -86.89722 20447 ft 347 kts 57°
2026-05-07 22:17 20.18233 -86.87655 20313 ft 346 kts 56°
2026-05-07 22:17 20.19653 -86.85588 20172 ft 344 kts 56°
2026-05-07 22:17 20.21061 -86.83537 20032 ft 343 kts 56°
2026-05-07 22:18 20.22468 -86.81489 19751 ft 345 kts 56°
2026-05-07 22:18 20.25335 -86.77343 18902 ft 349 kts 56°
2026-05-07 22:18 20.26779 -86.75257 18465 ft 350 kts 55°
2026-05-07 22:19 20.28204 -86.73199 18032 ft 348 kts 55°
2026-05-07 22:19 20.29627 -86.71143 17569 ft 343 kts 55°
2026-05-07 22:19 20.31031 -86.69112 17134 ft 337 kts 56°
2026-05-07 22:19 20.32408 -86.67120 16718 ft 331 kts 56°
2026-05-07 22:20 20.33760 -86.65162 16311 ft 325 kts 56°
2026-05-07 22:20 20.35083 -86.63246 15916 ft 319 kts 56°
2026-05-07 22:20 20.36400 -86.61365 15527 ft 314 kts 51°
2026-05-07 22:20 20.38103 -86.59922 15133 ft 316 kts 28°
2026-05-07 22:21 20.40205 -86.59288 14847 ft 315 kts
2026-05-07 22:21 20.42398 -86.59442 14573 ft 320 kts 350°
2026-05-07 22:21 20.44560 -86.60026 14288 ft 323 kts 347°
2026-05-07 22:21 20.46727 -86.60672 14023 ft 324 kts 347°
2026-05-07 22:22 20.48902 -86.61326 13732 ft 325 kts 347°
2026-05-07 22:22 20.51082 -86.61975 13445 ft 326 kts 347°
2026-05-07 22:22 20.53264 -86.62617 13141 ft 324 kts 347°
2026-05-07 22:22 20.55429 -86.63248 12855 ft 321 kts 347°
2026-05-07 22:23 20.57576 -86.63866 12583 ft 318 kts 347°
2026-05-07 22:23 20.59708 -86.64479 12308 ft 316 kts 347°
2026-05-07 22:23 20.61818 -86.65087 12041 ft 313 kts 347°
2026-05-07 22:23 20.63915 -86.65690 11746 ft 312 kts 347°
2026-05-07 22:24 20.66006 -86.66291 11441 ft 311 kts 348°
2026-05-07 22:24 20.68092 -86.66890 11146 ft 310 kts 346°
2026-05-07 22:24 20.70176 -86.67489 10846 ft 309 kts 346°
2026-05-07 22:24 20.72243 -86.68083 10543 ft 308 kts 347°
2026-05-07 22:25 20.74311 -86.68677 10246 ft 307 kts 347°
2026-05-07 22:25 20.76371 -86.69270 9947 ft 306 kts 346°
2026-05-07 22:25 20.78387 -86.69850 9916 ft 294 kts 347°
2026-05-07 22:25 20.80394 -86.70429 9390 ft 301 kts 346°
2026-05-07 22:26 20.82307 -86.71192 8994 ft 300 kts 327°
2026-05-07 22:26 20.82732 -86.71519 8911 ft 300 kts 321°
2026-05-07 22:27 20.84117 -86.73163 8608 ft 295 kts 306°
2026-05-07 22:27 20.85262 -86.74959 8291 ft 290 kts 303°
2026-05-07 22:27 20.86348 -86.76755 7995 ft 285 kts 302°
2026-05-07 22:27 20.87417 -86.78524 7708 ft 283 kts 302°
2026-05-07 22:28 20.88496 -86.80291 7418 ft 284 kts 303°
2026-05-07 22:28 20.89585 -86.82053 7115 ft 284 kts 302°
2026-05-07 22:28 20.90678 -86.83806 6811 ft 282 kts 303°
2026-05-07 22:28 20.91767 -86.85544 6502 ft 281 kts 303°
2026-05-07 22:29 20.92850 -86.87273 6208 ft 279 kts 302°
2026-05-07 22:29 20.93926 -86.88989 5889 ft 277 kts 302°
2026-05-07 22:29 20.94985 -86.90680 5589 ft 276 kts 302°
2026-05-07 22:29 20.96061 -86.92398 5295 ft 273 kts 302°
2026-05-07 22:30 20.97101 -86.94060 5010 ft 271 kts 302°
2026-05-07 22:30 20.98146 -86.95727 4718 ft 268 kts 301°
2026-05-07 22:30 20.98842 -86.96839 4520 ft 265 kts 301°
2026-05-07 22:30 20.99859 -86.98466 4246 ft 261 kts 302°
2026-05-07 22:31 21.01187 -87.00588 3887 ft 257 kts 302°
2026-05-07 22:31 21.02178 -87.02174 3642 ft 257 kts 301°
2026-05-07 22:31 21.03172 -87.03767 3400 ft 257 kts 302°
2026-05-07 22:31 21.03837 -87.04831 3253 ft 253 kts 302°
2026-05-07 22:32 21.04812 -87.06389 2956 ft 250 kts 302°
2026-05-07 22:32 21.05754 -87.07898 2714 ft 245 kts 302°
2026-05-07 22:32 21.06693 -87.09399 2484 ft 240 kts 302°
2026-05-07 22:32 21.07608 -87.10864 2244 ft 235 kts 303°
2026-05-07 22:33 21.08508 -87.12305 2040 ft 229 kts 303°
2026-05-07 22:33 21.09371 -87.13690 1984 ft 221 kts 302°
2026-05-07 22:33 21.10220 -87.15054 1983 ft 219 kts 302°
2026-05-07 22:33 21.11063 -87.16409 1992 ft 219 kts 303°
2026-05-07 22:34 21.11907 -87.17767 1974 ft 219 kts 302°
2026-05-07 22:34 21.12773 -87.19116 1981 ft 221 kts 310°
2026-05-07 22:34 21.14045 -87.19976 1979 ft 217 kts 352°
2026-05-07 22:34 21.15482 -87.19825 1984 ft 205 kts 28°
2026-05-07 22:35 21.16719 -87.19110 1977 ft 201 kts 39°
2026-05-07 22:35 21.17874 -87.18289 1974 ft 195 kts 40°
2026-05-07 22:35 21.18995 -87.17483 1987 ft 192 kts 39°
2026-05-07 22:35 21.20041 -87.16612 1957 ft 185 kts 59°
2026-05-07 22:36 21.20335 -87.15418 1974 ft 161 kts 109°
2026-05-07 22:36 21.19844 -87.14356 1995 ft 161 kts 119°
2026-05-07 22:36 21.19380 -87.13243 1997 ft 164 kts 114°
2026-05-07 22:36 21.18902 -87.12141 1987 ft 163 kts 122°
2026-05-07 22:37 21.18304 -87.11109 1991 ft 163 kts 125°
2026-05-07 22:37 21.17673 -87.10095 1990 ft 164 kts 126°
2026-05-07 22:37 21.17036 -87.09079 1984 ft 164 kts 126°
2026-05-07 22:37 21.16400 -87.08064 1974 ft 164 kts 126°
2026-05-07 22:38 21.15766 -87.07053 1969 ft 164 kts 126°
2026-05-07 22:38 21.15131 -87.06038 1914 ft 163 kts 126°
2026-05-07 22:38 21.14502 -87.05031 1850 ft 162 kts 126°
2026-05-07 22:38 21.13871 -87.04023 1802 ft 163 kts 126°
2026-05-07 22:39 21.13239 -87.03015 1767 ft 164 kts 126°
2026-05-07 22:39 21.12605 -87.02002 1696 ft 163 kts 126°
2026-05-07 22:39 21.11978 -87.00999 1642 ft 160 kts 126°
2026-05-07 22:39 21.11362 -87.00014 1570 ft 159 kts 126°
2026-05-07 22:40 21.10760 -86.99051 1519 ft 155 kts 125°
2026-05-07 22:40 21.10180 -86.98124 1459 ft 151 kts 125°
2026-05-07 22:40 21.09601 -86.97201 1341 ft 146 kts 126°
2026-05-07 22:40 21.09049 -86.96343 1298 ft 138 kts 126°
2026-05-07 22:41 21.08498 -86.95468 1302 ft 144 kts 126°
2026-05-07 22:41 21.07941 -86.94576 1170 ft 144 kts 126°
2026-05-07 22:41 21.07400 -86.93707 1005 ft 136 kts 126°
2026-05-07 22:41 21.06892 -86.92889 853 ft 131 kts 126°
2026-05-07 22:42 21.06376 -86.92067 685 ft 136 kts 124°
2026-05-07 22:42 21.05850 -86.91210 526 ft 134 kts 121°
2026-05-07 22:42 21.05356 -86.90400 410 ft 127 kts 124°
2026-05-07 22:42 21.04843 -86.89597 208 ft 134 kts 127°
2026-05-07 22:43 21.04317 -86.88757 49 ft 136 kts 126°
2026-05-07 22:43 21.03818 -86.87963 104 ft 132 kts 128°
2026-05-07 22:43 21.03262 -86.87065 457 ft 159 kts 126°
2026-05-07 22:43 21.02650 -86.86016 956 ft 180 kts 124°
2026-05-07 22:44 21.01875 -86.84803 1220 ft 212 kts 130°
2026-05-07 22:44 21.00647 -86.83900 1732 ft 217 kts 161°
2026-05-07 22:44 20.99092 -86.83836 1957 ft 232 kts 187°
2026-05-07 22:44 20.97509 -86.84183 1969 ft 232 kts 188°
2026-05-07 22:45 20.95908 -86.84536 1978 ft 237 kts 188°
2026-05-07 22:45 20.94300 -86.84884 1976 ft 234 kts 188°
2026-05-07 22:45 20.92712 -86.85223 1988 ft 232 kts 189°
2026-05-07 22:45 20.91222 -86.85875 1984 ft 237 kts 215°
2026-05-07 22:46 20.90222 -86.87291 2050 ft 247 kts 244°
2026-05-07 22:46 20.89909 -86.89166 2332 ft 272 kts 271°
2026-05-07 22:46 20.90414 -86.91130 2926 ft 275 kts 296°
2026-05-07 22:46 20.91514 -86.92853 2983 ft 285 kts 308°
2026-05-07 22:47 20.92801 -86.94465 2994 ft 285 kts 310°
2026-05-07 22:47 20.94126 -86.96059 2986 ft 289 kts 310°
2026-05-07 22:47 20.95461 -86.97676 2993 ft 291 kts 309°
2026-05-07 22:47 20.96790 -86.99307 2992 ft 289 kts 309°
2026-05-07 22:48 20.98098 -87.00932 2987 ft 287 kts 308°
2026-05-07 22:48 20.99393 -87.02555 2988 ft 285 kts 308°
2026-05-07 22:48 21.00673 -87.04169 3002 ft 285 kts 308°
2026-05-07 22:48 21.01942 -87.05773 2996 ft 286 kts 308°
2026-05-07 22:49 21.03240 -87.07419 2990 ft 286 kts 308°
2026-05-07 22:49 21.04508 -87.09029 2956 ft 288 kts 309°
2026-05-07 22:49 21.05807 -87.10681 2697 ft 290 kts 309°
2026-05-07 22:49 21.07100 -87.12325 2440 ft 286 kts 309°
2026-05-07 22:50 21.08367 -87.13938 2192 ft 280 kts 310°
2026-05-07 22:50 21.09609 -87.15518 2038 ft 275 kts 310°
2026-05-07 22:50 21.10839 -87.17083 1995 ft 276 kts 310°
2026-05-07 22:50 21.12090 -87.18606 1995 ft 266 kts 318°
2026-05-07 22:51 21.13642 -87.19486 1971 ft 244 kts 351°
2026-05-07 22:51 21.15237 -87.19517 1975 ft 217 kts 14°
2026-05-07 22:51 21.16628 -87.19063 1964 ft 208 kts 35°
2026-05-07 22:51 21.17856 -87.18233 1993 ft 212 kts 38°
2026-05-07 22:52 21.19092 -87.17363 1996 ft 212 kts 38°
2026-05-07 22:52 21.20171 -87.16380 1973 ft 196 kts 62°
2026-05-07 22:52 21.20443 -87.15095 1986 ft 172 kts 111°
2026-05-07 22:52 21.19892 -87.13986 1999 ft 167 kts 123°
2026-05-07 22:53 21.19305 -87.12927 1982 ft 163 kts 124°
2026-05-07 22:53 21.18710 -87.11909 1978 ft 159 kts 125°
2026-05-07 22:53 21.18111 -87.10918 1969 ft 159 kts 125°
2026-05-07 22:53 21.17505 -87.09932 1996 ft 158 kts 126°
2026-05-07 22:54 21.16898 -87.08953 1997 ft 158 kts 126°
2026-05-07 22:54 21.16292 -87.07978 2001 ft 155 kts 126°
2026-05-07 22:54 21.15702 -87.07032 1974 ft 151 kts 126°
2026-05-07 22:54 21.15121 -87.06099 1907 ft 149 kts 126°
2026-05-07 22:55 21.14545 -87.05175 1866 ft 148 kts 126°
2026-05-07 22:55 21.13972 -87.04256 1819 ft 148 kts 126°
2026-05-07 22:55 21.13405 -87.03346 1765 ft 146 kts 126°
2026-05-07 22:55 21.12840 -87.02440 1714 ft 148 kts 125°
2026-05-07 22:56 21.12265 -87.01517 1670 ft 150 kts 125°
2026-05-07 22:56 21.11687 -87.00590 1628 ft 149 kts 126°
2026-05-07 22:56 21.11114 -86.99670 1564 ft 149 kts 125°
2026-05-07 22:56 21.10531 -86.98734 1513 ft 153 kts 125°
2026-05-07 22:57 21.09937 -86.97780 1432 ft 154 kts 126°
2026-05-07 22:57 21.09344 -86.96830 1330 ft 152 kts 126°
2026-05-07 22:57 21.08722 -86.95832 1325 ft 162 kts 126°
2026-05-07 22:57 21.08123 -86.94867 1265 ft 150 kts 126°
2026-05-07 22:58 21.07553 -86.93951 1070 ft 147 kts 126°
2026-05-07 22:58 21.07003 -86.93068 901 ft 134 kts 126°
2026-05-07 22:58 21.06472 -86.92219 721 ft 137 kts 127°
2026-05-07 22:58 21.05965 -86.91419 559 ft 130 kts 122°
2026-05-07 22:59 21.05480 -86.90593 380 ft 133 kts 124°
2026-05-07 22:59 21.04954 -86.89763 219 ft 134 kts 127°
2026-05-07 22:59 21.04435 -86.88942 54 ft 136 kts 123°
2026-05-07 22:59 21.03959 -86.88185 37 ft 105 kts 124°
2026-05-07 23:00 21.03634 -86.87667 38 ft 60 kts 123°
2026-05-07 23:00 21.03471 -86.87404 38 ft 35 kts 124°
2026-05-07 23:00 21.03392 -86.87278 38 ft 12 kts 124°
2026-05-07 23:00 21.03404 -86.87208 38 ft 11 kts 36°
2026-05-07 23:01 21.03468 -86.87161 41 ft 11 kts 35°
2026-05-07 23:01 21.03518 -86.87125 41 ft 6 kts 36°
2026-05-07 23:01 21.03548 -86.87096 41 ft 4 kts 34°
2026-05-07 23:01 21.03561 -86.87090 40 ft 2 kts 60°
2026-05-07 23:02 21.03551 -86.87075 42 ft 3 kts 133°
2026-05-07 23:02 21.03529 -86.87045 42 ft 7 kts 125°
2026-05-07 23:02 21.03495 -86.86992 41 ft 10 kts 124°
2026-05-07 23:02 21.03451 -86.86921 41 ft 12 kts 123°
2026-05-07 23:03 21.03406 -86.86849 41 ft 10 kts 125°
2026-05-07 23:03 21.03423 -86.86788 42 ft 10 kts 37°
2026-05-07 23:03 21.03477 -86.86749 42 ft 9 kts 33°
2026-05-07 23:03 21.03529 -86.86717 42 ft 8 kts
2026-05-07 23:04 21.03567 -86.86751 42 ft 6 kts 309°
2026-05-07 23:04 21.03588 -86.86780 41 ft 1 kts 308°
2026-05-07 23:04 21.03590 -86.86782 41 ft 0 kts 308°